This demonstration page uses our WeatherBlox Daily Observations layout. Learn more.

Hourly Observations for April 26, 2015

Temp ( °F °C ) Dew Point ( °F °C ) Humidity (%) Winds ( mph kmh ) Pressure ( in mb ) Visibility ( mi km ) Precip ( " mm )
12:15 am 00:15 Cloudy with Mist and Fog 46 8 44 6.6 91 91 ENE 13 20 29.91 1013 5 8.0467 0 0
12:35 am 00:35 Cloudy 46 8 44 6.6 91 91 E 13 20 29.91 1013 7 11.26538 0 0
12:55 am 00:55 Cloudy 46 8 44 6.6 91 91 ENE 12 19 29.91 1013 7 11.26538 0 0
1:15 am 01:15 Cloudy 46 7.9 44 6.5 91 91 ENE 14 22 29.91 1013 7 11.26538 0 0
1:35 am 01:35 Cloudy 46 7.8 44 6.4 91 91 ENE 13 20 29.91 1013 7 11.26538 0 0
1:55 am 01:55 Cloudy with Mist and Fog 46 7.7 44 6.6 93 93 ENE 13 20 29.91 1013 5 8.0467 0 0
2:15 am 02:15 Cloudy 46 7.6 44 6.5 93 93 ENE 12 19 29.91 1013 7 11.26538 0 0
2:35 am 02:35 Cloudy with Mist and Fog 45 7.3 44 6.4 94 94 ENE 13 20 29.91 1013 2.5 4.02335 0 0
2:55 am 02:55 Cloudy with Mist and Fog 45 7.3 44 6.5 95 95 ENE 14 22 29.91 1013 3 4.82802 0 0
3:15 am 03:15 Cloudy with Mist and Fog 45 7.2 44 6.5 95 95 E 12 19 29.91 1013 3 4.82802 0 0
3:35 am 03:35 Cloudy with Mist and Fog 45 7.1 43 6.3 95 95 E 16 26 29.91 1013 3 4.82802 0 0
3:55 am 03:55 Cloudy with Mist and Fog 45 7 43 6 93 93 E 14 22 29.91 1013 4 6.43736 0 0
4:15 am 04:15 Cloudy with Mist and Fog 45 7 43 6.1 94 94 E 13 20 29.91 1013 3 4.82802 0 0
4:35 am 04:35 Cloudy with Mist and Fog 44 6.9 43 6 94 94 E 13 20 29.91 1013 5 8.0467 0 0
4:55 am 04:55 Cloudy 45 7 43 5.9 93 93 E 15 24 29.91 1013 7 11.26538 0 0
5:15 am 05:15 Cloudy 45 7 42 5.7 92 92 E 16 26 29.94 1014 7 11.26538 0 0
5:35 am 05:35 Cloudy 45 7 42 5.6 91 91 E 12 19 29.94 1014 7 11.26538 0 0
5:55 am 05:55 Cloudy with Mist and Fog 45 7 42 5.6 91 91 ENE 10 17 29.94 1014 5 8.0467 0 0
6:15 am 06:15 Cloudy with Mist and Fog 45 7 42 5.5 90 90 E 13 20 29.94 1014 5 8.0467 0 0
6:35 am 06:35 Cloudy with Mist and Fog 45 7 42 5.6 91 91 E 10 17 29.97 1015 5 8.0467 0 0
6:55 am 06:55 Cloudy 44 6.8 42 5.4 91 91 ENE 13 20 29.97 1015 7 11.26538 0 0
7:15 am 07:15 Cloudy 44 6.8 41 5.1 89 89 E 12 19 29.97 1015 10 16.0934 0 0
7:35 am 07:35 Cloudy 44 6.9 41 5.1 88 88 E 12 19 29.97 1015 10 16.0934 0 0
7:55 am 07:55 Cloudy 44 6.8 41 5.1 89 89 E 12 19 29.97 1015 7 11.26538 0 0
8:15 am 08:15 Cloudy with Mist and Fog 44 6.7 41 5.1 90 90 E 15 24 30 1016 5 8.0467 0 0
8:35 am 08:35 Cloudy with Mist and Fog 44 6.8 41 5.2 90 90 E 14 22 30 1016 5 8.0467 0 0
8:55 am 08:55 Cloudy with Mist and Fog 44 6.6 42 5.4 92 92 E 14 22 30 1016 3 4.82802 0 0
9:15 am 09:15 Cloudy with Mist and Fog 44 6.5 42 5.5 93 93 ENE 15 24 30 1016 2.5 4.02335 0 0
9:35 am 09:35 Cloudy with Mist and Fog 44 6.5 42 5.5 93 93 E 14 22 30 1016 2 3.21868 0 0
9:55 am 09:55 Cloudy with Mist and Fog 44 6.4 42 5.4 93 93 E 16 26 30 1016 2 3.21868 0 0
10:15 am 10:15 Cloudy with Mist and Fog 44 6.5 42 5.5 93 93 E 17 28 30 1016 4 6.43736 0 0
10:35 am 10:35 Cloudy with Mist and Fog 44 6.5 41 5.2 92 92 ENE 17 28 30 1016 4 6.43736 0 0
10:55 am 10:55 Cloudy with Mist and Fog 44 6.6 41 5.1 90 90 E 17 28 30 1016 5 8.0467 0 0
11:15 am 11:15 Cloudy 45 7.4 42 5.5 88 88 E 12 19 30 1016 7 11.26538 0 0
11:35 am 11:35 Cloudy 47 8.2 42 5.5 83 83 E 15 24 30 1016 10 16.0934 0 0
11:55 am 11:55 Cloudy 49 9.2 42 5.5 78 78 E 17 28 30.03 1017 10 16.0934 0 0
12:15 pm 12:15 Cloudy 49 9.7 42 5.7 76 76 E 17 28 30 1016 10 16.0934 0 0
12:35 pm 12:35 Cloudy 50 10 42 5.8 75 75 ENE 14 22 30 1016 10 16.0934 0 0
12:55 pm 12:55 Cloudy 49 9.6 42 5.4 75 75 E 15 24 30 1016 10 16.0934 0 0
1:15 pm 13:15 Cloudy 49 9.6 42 5.3 75 75 E 18 30 30 1016 10 16.0934 0 0
1:35 pm 13:35 Cloudy 51 10.4 42 5.4 71 71 E 15 24 29.97 1015 10 16.0934 0 0
1:55 pm 13:55 Cloudy 51 10.5 42 5.6 72 72 E 17 28 29.97 1015 10 16.0934 0 0
2:15 pm 14:15 Cloudy 52 11 42 5.6 70 70 E 20 31 29.97 1015 10 16.0934 0 0
2:35 pm 14:35 Cloudy 52 11.3 42 5.5 68 68 E 22 35 29.97 1015 10 16.0934 0 0
2:55 pm 14:55 Cloudy 53 11.7 42 5.8 67 67 E 17 28 29.97 1015 10 16.0934 0 0
3:15 pm 15:15 Cloudy 53 11.6 42 5.4 66 66 E 20 31 29.97 1015 10 16.0934 0 0
3:35 pm 15:35 Cloudy 53 11.6 42 5.5 66 66 E 15 24 29.97 1015 10 16.0934 0 0
3:55 pm 15:55 Cloudy 53 11.6 42 5.4 66 66 E 20 31 29.97 1015 10 16.0934 0 0
4:15 pm 16:15 Cloudy 53 11.5 42 5.5 67 67 E 15 24 29.97 1015 10 16.0934 0 0
4:35 pm 16:35 Cloudy 53 11.9 42 5.3 64 64 E 18 30 29.97 1015 10 16.0934 0 0
4:55 pm 16:55 Cloudy 54 12.4 42 5.5 63 63 E 16 26 29.97 1015 10 16.0934 0 0
5:15 pm 17:15 Cloudy 54 12.1 42 5.4 64 64 E 14 22 29.97 1015 10 16.0934 0 0
5:35 pm 17:35 Cloudy 54 12 42 5.6 65 65 E 13 20 29.97 1015 10 16.0934 0 0
5:55 pm 17:55 Cloudy 54 12.1 42 5.7 65 65 E 12 19 29.97 1015 10 16.0934 0 0
6:15 pm 18:15 Cloudy 54 12.2 42 5.5 64 64 ENE 15 24 29.97 1015 10 16.0934 0 0
6:35 pm 18:35 Cloudy 54 12 41 5.2 63 63 ENE 18 30 29.97 1015 10 16.0934 0 0
6:55 pm 18:55 Cloudy 54 12 42 5.3 64 64 ENE 16 26 29.97 1015 10 16.0934 0 0
7:15 pm 19:15 Cloudy 54 12 42 5.3 64 64 E 13 20 29.97 1015 10 16.0934 0 0
7:35 pm 19:35 Cloudy 53 11.7 42 5.3 65 65 ENE 15 24 29.97 1015 10 16.0934 0 0
7:55 pm 19:55 Cloudy 53 11.5 42 5.7 68 68 ENE 10 17 30 1016 10 16.0934 0 0
8:15 pm 20:15 Cloudy 53 11.4 42 5.8 69 69 ENE 9 15 30 1016 10 16.0934 0 0
8:35 pm 20:35 Cloudy 52 11 43 5.9 71 71 ENE 7 11 30.03 1017 10 16.0934 0 0
8:55 pm 20:55 Cloudy 51 10.8 42 5.7 71 71 NE 7 11 30.03 1017 10 16.0934 0 0
9:15 pm 21:15 Cloudy 50 10.2 42 5.6 73 73 ENE 6 9 30.03 1017 10 16.0934 0 0
9:35 pm 21:35 Cloudy 51 10.5 42 5.8 73 73 E 6 9 30.06 1018 10 16.0934 0 0
9:55 pm 21:55 Mostly Cloudy 50 9.8 42 5.7 76 76 ENE 7 11 30.06 1018 10 16.0934 0 0
10:15 pm 22:15 Partly Cloudy 47 8.5 42 5.3 81 81 ENE 7 11 30.09 1019 10 16.0934 0 0
10:35 pm 22:35 Clear 45 7.4 40 4.7 83 83 NE 7 11 30.09 1019 10 16.0934 0 0
10:55 pm 22:55 Clear 45 7.1 40 4.6 84 84 NE 6 9 30.09 1019 10 16.0934 0 0
11:15 pm 23:15 Clear 44 6.5 39 4.1 85 85 NE 6 9 30.09 1019 10 16.0934 0 0
11:35 pm 23:35 Clear 43 6.1 40 4.2 88 88 NNE 5 7 30.15 1021 10 16.0934 0 0
11:55 pm 23:55 Clear 42 5.7 38 3.6 87 87 NNE 6 9 30.15 1021 10 16.0934 0 0

Powered by AerisWeather